Orbital Elements at Epoch 2453849.5 (2006-Apr-24.0) TDB
Reference: JPL 28 (heliocentric ecliptic J2000)
Element | Value | Uncertainty (1-sigma) | Units |
e | .9544420406541483 | 3.4314e-09 | |
a | 24.30466900945265 | 2.2691e-07 | au |
q | 1.107271122647026 | 9.0436e-08 | au |
i | 31.21645855802596 | 1.224e-05 | deg |
node | 272.0677211295935 | 7.4188e-06 | deg |
peri | 60.45355087098523 | 1.7361e-05 | deg |
M | 358.9579497173977 | 1.1174e-07 | deg |
tp | 2453976.183241812853 (2006-Aug-28.68324181) | 1.2172e-05 | TDB |
period | 43765.61075223311 119.82 | 0.00061291 1.678e-06 | d yr |
n | .00822563638008025 | 1.1519e-10 | deg/d |
Q | 47.50206689625827 | 4.4349e-07 | au |
|
| | Orbit Determination Parameters
Additional Information
|